Weather History for Morris, IL

Change the Weather History Date:

Sunday, December 22, 2013

  Actual Average (KLOT) Record (KLOT)
Temperature  
Mean Temperature 28 °F 25 °F  
Max Temperature 31 °F 33 °F 53 °F (2006)
Min Temperature 25 °F 18 °F -11 °F (2000)
Degree Days  
Heating Degree Days 37 40  
Month to date heating degree days 789  
Since 1 July heating degree days 2008  
Cooling Degree Days 0 0  
Month to date cooling degree days 0  
Year to date cooling degree days 862  
Moisture  
Dew Point 26 °F    
Average Humidity 88    
Maximum Humidity 100    
Minimum Humidity 83    
Precipitation  
Precipitation 0.06 in 0.08 in 0.82 in (2006)
Month to date precipitation 1.60  
Year to date precipitation 39.42  
Snow  
Snow 0.00 in 0.30 in 2.70 in (2009)
Month to date snowfall 6.2  
Since 1 July snowfall 7.1  
Snow Depth -    
Sea Level Pressure  
Sea Level Pressure 29.83 in    
Wind  
Wind Speed 7 mph (NW)    
Max Wind Speed 16 mph    
Max Gust Speed 17 mph    
Visibility 8 miles    
Events Rain    
T = Trace of Precipitation, MM = Missing Value Source: NWS Daily Summary

Daily Weather History Graph

Daily Weather History Graph

Search for Another Location

Airport:

Trip Planner

Search our weather history database for the weather conditions in past years. The results will help you decide how hot, cold, wet, or windy it might be!

Date:

Astronomy

Dec. 22, 2013 Rise Set
Actual Time 7:17 AM CST 4:27 PM CST
Civil Twilight 6:45 AM CST 4:59 PM CST
Nautical Twilight 6:10 AM CST 5:34 PM CST
Astronomical Twilight 5:37 AM CST 6:07 PM CST
Moon 9:43 PM CST (12/22) 10:10 AM CST (12/22)
Length of Visible Light 10h 13m
Length of Day
9h 10m
Waning Gibbous, 76% of the Moon is Illuminated
Dec 22
Waning Gibbous
Dec 25
Last Quarter
Jan 1
New
Jan 7
First Quarter
Jan 15
Full

Hourly Weather History & Observations

Time (CST) Temp. Windchill Dew Point Humidity Pressure Visibility Wind Dir Wind Speed Gust Speed Precip Events Conditions
12:15 AM - - - N/A% 29.60 in 5.0 mi NNE 5.8 mph - N/A   Drizzle
12:35 AM - - - N/A% 29.62 in 5.0 mi NNE 5.8 mph - N/A   Drizzle
12:55 AM - - - N/A% 29.60 in 3.0 mi North 5.8 mph - N/A   Drizzle
1:15 AM - - - N/A% 29.60 in 3.0 mi North 5.8 mph - N/A   Drizzle
1:35 AM - - - N/A% 29.60 in 4.0 mi North 4.6 mph - 0.01 in   Light Drizzle
1:55 AM - - - N/A% 29.59 in 2.5 mi North 6.9 mph - 0.01 in   Drizzle
2:15 AM - - - N/A% 29.60 in 3.0 mi North 6.9 mph - N/A   Drizzle
2:35 AM - - - N/A% 29.60 in 4.0 mi North 6.9 mph - 0.01 in Rain Rain
2:55 AM - - - N/A% 29.60 in 3.0 mi North 5.8 mph - 0.01 in Rain Light Rain
3:15 AM - - - N/A% 29.60 in 2.5 mi North 5.8 mph - N/A   Drizzle
3:35 AM - - - N/A% 29.59 in 4.0 mi NE 4.6 mph - N/A   Overcast
3:55 AM - - - N/A% 29.60 in 4.0 mi NE 4.6 mph - 0.01 in   Light Drizzle
4:15 AM - - - N/A% 29.58 in 4.0 mi NNE 6.9 mph - N/A   Haze
4:35 AM - - - N/A% 29.59 in 10.0 mi NE 5.8 mph - N/A   Light Drizzle
4:55 AM - - - N/A% 29.59 in 10.0 mi NE 4.6 mph - N/A   Overcast
5:15 AM - - - N/A% 29.64 in 10.0 mi Calm Calm - N/A   Overcast
5:35 AM - - - N/A% 29.66 in 2.0 mi Calm Calm - 0.01 in   Unknown
5:55 AM - - - N/A% 29.65 in 1.8 mi Calm Calm - 0.01 in   Overcast
6:15 AM - - - N/A% 29.65 in 2.0 mi Calm Calm - N/A   Light Drizzle
6:35 AM - - - N/A% 29.67 in 2.5 mi Calm Calm - N/A Rain Light Rain
6:55 AM - - - N/A% 29.68 in 1.5 mi NW 3.5 mph - N/A   Unknown
7:15 AM - - - N/A% 29.70 in 1.8 mi WNW 6.9 mph - N/A   Unknown
7:35 AM - - - N/A% 29.70 in 1.0 mi NW 5.8 mph - N/A   Unknown
7:55 AM - - - N/A% 29.71 in 1.0 mi NW 4.6 mph - 0.01 in   Unknown
8:15 AM - - - N/A% 29.72 in 2.0 mi NW 5.8 mph - N/A   Unknown
8:35 AM - - - N/A% 29.73 in 10.0 mi NW 5.8 mph - N/A   Overcast
8:55 AM - - - N/A% 29.74 in 10.0 mi NW 6.9 mph - N/A   Overcast
9:15 AM - - - N/A% 29.74 in 10.0 mi NNW 4.6 mph - N/A   Overcast
9:35 AM - - - N/A% 29.75 in 10.0 mi NNW 6.9 mph - N/A   Overcast
9:55 AM - - - N/A% 29.77 in 10.0 mi NW 6.9 mph - N/A   Overcast
10:15 AM - - - N/A% 29.78 in 10.0 mi NNW 6.9 mph - 0.01 in   Overcast
10:35 AM 31.8 °F 25.4 °F 31.8 °F 100% 29.79 in 10.0 mi NNW 6.9 mph - 0.01 in   Overcast
10:55 AM 31.3 °F 24.7 °F 29.7 °F 94% 29.79 in 10.0 mi NNW 6.9 mph - 0.01 in   Overcast
11:15 AM 30.9 °F 22.8 °F 28.2 °F 90% 29.79 in 10.0 mi NNW 9.2 mph - N/A   Overcast
11:35 AM 30.7 °F 24.9 °F 28.0 °F 90% 29.81 in 10.0 mi NNW 5.8 mph - N/A   Overcast
11:55 AM 30.7 °F 24.1 °F 27.5 °F 88% 29.81 in 10.0 mi NNW 6.9 mph - N/A   Overcast
12:15 PM 30.7 °F 24.9 °F 26.8 °F 85% 29.80 in 10.0 mi NNW 5.8 mph - N/A   Overcast
12:35 PM 30.6 °F 23.8 °F 26.6 °F 85% 29.81 in 10.0 mi NNW 6.9 mph - N/A   Overcast
12:55 PM 31.1 °F 25.4 °F 27.0 °F 85% 29.82 in 10.0 mi NW 5.8 mph - N/A   Overcast
1:15 PM 30.9 °F 24.3 °F 26.8 °F 85% 29.85 in 10.0 mi NW 6.9 mph - N/A   Overcast
1:35 PM 30.7 °F 23.3 °F 27.1 °F 86% 29.86 in 10.0 mi WNW 8.1 mph - N/A   Overcast
1:55 PM 30.4 °F 22.9 °F 26.8 °F 86% 29.87 in 10.0 mi WNW 8.1 mph - N/A   Overcast
2:15 PM 30.2 °F 22.6 °F 25.9 °F 84% 29.88 in 10.0 mi WNW 8.1 mph - N/A   Overcast
2:35 PM 30.2 °F 20.8 °F 26.6 °F 86% 29.89 in 10.0 mi WNW 11.5 mph - N/A   Overcast
2:55 PM 30.0 °F 19.5 °F 27.0 °F 88% 29.90 in 10.0 mi WNW 13.8 mph - N/A   Overcast
3:15 PM 29.8 °F 18.9 °F 25.9 °F 85% 29.91 in 10.0 mi WNW 15.0 mph - N/A   Overcast
3:35 PM 29.7 °F 19.6 °F 27.0 °F 90% 29.93 in 10.0 mi WNW 12.7 mph - N/A   Overcast
3:55 PM 29.3 °F 18.6 °F 27.3 °F 92% 29.94 in 10.0 mi WNW 13.8 mph - N/A   Overcast
4:15 PM 29.1 °F 17.5 °F 26.6 °F 90% 29.95 in 10.0 mi WNW 16.1 mph - N/A   Overcast
4:35 PM 29.1 °F 17.9 °F 27.1 °F 92% 29.96 in 10.0 mi WNW 15.0 mph - N/A   Overcast
4:55 PM 28.9 °F 18.2 °F 26.2 °F 90% 29.98 in 10.0 mi WNW 13.8 mph - N/A   Overcast
5:15 PM 29.1 °F 19.4 °F 26.6 °F 90% 29.98 in 10.0 mi NW 11.5 mph - N/A   Overcast
5:35 PM 28.9 °F 20.4 °F 25.9 °F 88% 29.99 in 10.0 mi NW 9.2 mph - N/A   Overcast
5:55 PM 28.9 °F 18.6 °F 26.1 °F 89% 30.00 in 10.0 mi WNW 12.7 mph - N/A   Overcast
6:15 PM 28.9 °F 19.2 °F 26.6 °F 91% 30.00 in 10.0 mi NW 11.5 mph - N/A   Overcast
6:35 PM 28.4 °F 18.5 °F 23.9 °F 83% 30.02 in 10.0 mi NW 11.5 mph - N/A   Overcast
6:55 PM 28.4 °F 19.1 °F 24.6 °F 86% 30.02 in 10.0 mi NW 10.4 mph - N/A   Overcast
7:15 PM 28.4 °F 18.5 °F 23.9 °F 83% 30.04 in 10.0 mi WNW 11.5 mph - N/A   Overcast
7:35 PM 28.4 °F 19.1 °F 23.9 °F 83% 30.04 in 10.0 mi WNW 10.4 mph - N/A   Overcast
7:55 PM 28.4 °F 18.5 °F 24.3 °F 84% 30.05 in 10.0 mi WNW 11.5 mph - N/A   Overcast
8:15 PM 28.4 °F 18.0 °F 24.1 °F 84% 30.06 in 10.0 mi WNW 12.7 mph - N/A   Overcast
8:35 PM 28.4 °F 18.0 °F 24.1 °F 84% 30.06 in 10.0 mi WNW 12.7 mph - N/A   Overcast
8:55 PM 28.4 °F 19.1 °F 25.5 °F 89% 30.07 in 10.0 mi WNW 10.4 mph - N/A   Overcast
9:15 PM 28.4 °F 18.0 °F 26.1 °F 91% 30.07 in 10.0 mi WNW 12.7 mph - N/A   Overcast
9:35 PM 28.4 °F 18.5 °F 26.6 °F 93% 30.08 in 10.0 mi WNW 11.5 mph - N/A   Overcast
9:55 PM 28.4 °F 18.5 °F 26.2 °F 92% 30.09 in 10.0 mi WNW 11.5 mph - N/A   Overcast
10:15 PM 28.4 °F 18.5 °F 26.6 °F 93% 30.10 in 10.0 mi West 11.5 mph 17.3 mph N/A   Overcast
10:35 PM 27.3 °F 15.2 °F 25.7 °F 94% 30.11 in 10.0 mi West 16.1 mph - N/A   Overcast
10:55 PM 26.8 °F 14.9 °F 25.0 °F 93% 30.12 in 10.0 mi West 15.0 mph - N/A   Overcast
11:15 PM 26.4 °F 15.0 °F 24.1 °F 91% 30.12 in 10.0 mi West 13.8 mph - N/A   Overcast
11:35 PM 25.7 °F 14.0 °F 23.0 °F 89% 30.13 in 10.0 mi West 13.8 mph - N/A   Overcast
11:55 PM 25.0 °F 12.6 °F 21.7 °F 87% 30.14 in 10.0 mi West 15.0 mph - N/A   Overcast